Tracking 18980 objects as of 22-Feb-2018
HD Live streaming from Space Station
objects crossing your sky now

COSMOS 1054

Track COSMOS 1054 now!
10-day predictions
COSMOS 1054 is classified as:


NORAD ID: 11131
Int'l Code: 1978-109D
Perigee: 1,452.6 km
Apogee: 1,496.9 km
Inclination: 74.0 °
Period: 115.3 minutes
Semi major axis: 7845 km
RCS: 0.7021 m2 (medium)
Launch date: December 5, 1978
Source: Commonwealth of Independent States (former USSR) (CIS)
Launch site: PLESETSK MISSILE AND SPACE COMPLEX (PKMTR)
aabbcc
Your satellite tracking list
Your tracking list is empty




NASA's NSSDC Master Catalog

Two Line Element Set (TLE):
1 11131U 78109D   18052.72775762 -.00000020 +00000-0 -25978-4 0  9990
2 11131 074.0154 056.3502 0028231 255.4389 218.4012 12.49266769788387
Source of the keplerian elements: AFSPC